GPS BIIR-9 (PRN 21)

Last updated on July 6, 2021, 3:39 p.m. UTC

1 27704U 03010A   21185.98673859 -.00000087  00000-0  00000-0 0  9992
2 27704  54.8662  37.4035 0242298 295.8256  83.1388  2.00564430133843
UTC
Height (km)
Latitude
Longitude
Inclination
Orbital Period
UTC large
Height (km)
Speed (km/s)
/
Latitude / Longitude
Inclination (degrees)
Orbital Period (minutes)
Azimuth
Elevation
Range (km)
Doppler Factor
iOS Compass Heading
iOS Angle